Location: Aldenham
(51.6667°N, 0.3500°W)
Time: 06:59:54
(UTC+00:00)

Cosmos 2227 Rocket - Pass Details

Date: 18 November 2025
Orbit: 839 x 842 km, 71.0° (Epoch: 12 December)

Event Time Altitude Azimuth Distance (km) Brightness Sun altitude
Rises 19:15:04 0° 325° (NW) 3,405 5.9 -28.7°
Reaches altitude 10° 19:18:52 10° 351° (N) 2,468 4.8 -29.3°
Enters shadow 19:20:18 13° 5° (N) 2,264 4.4 -29.5°
